Location: Anumalkud?ru
(16.4847°N, 80.6636°E)
Time: 22:30:13
(UTC+00:00)

PSLV R/B - Pass Details

Date: 11 April 2026
Orbit: 560 x 585 km, 98.0° (Epoch: 9 May)

Event Time Altitude Azimuth Distance (km) Brightness Sun altitude
Exits shadow 14:03:36 - 176° (S) 2,611 6.6 -17.6°
Reaches altitude 10° 14:05:27 10° 180° (S) 1,846 5.8 -18.1°
Maximum altitude 14:09:22 57° 259° (WSW) 666 4.0 -19.0°
Drops below altitude 10° 14:13:20 10° 338° (NNW) 1,862 6.5 -19.9°
Sets 14:15:31 0° 343° (NNW) 2,764 7.4 -20.4°
